Wetbulb
71.58 71.30 70.95 71.25 70.79 70.66 71.19 70.23 69.09 69.40 70.99 72.31 72.51 72.34 71.68 71.20 71.51 71.35 71.13 70.49 72.25 71.58 70.69 71.27 71.48 72.17 73.14 73.08 73.53 73.60 73.21 73.16 73.48
71.68 70.85 70.59 69.16 69.28 70.49 68.69 67.92 67.21 67.77 69.94 70.92 71.83 71.75 70.92 70.58 70.58 70.07 70.04 70.22 70.81 72.59 71.85 70.59 71.02 71.51 71.98 72.88 72.83 73.16 73.30 73.27 72.84
68.96 68.41 68.30 67.63 67.40 67.77 67.27 66.59 65.97 66.06 69.30 70.53 69.97 69.99 68.67 68.60 68.36 68.97 69.65 70.81 69.68 69.58 70.55 71.83 70.62 70.58 71.38 71.70 72.60 72.46 72.86 73.14 73.28
67.20 66.91 66.77 66.38 65.76 65.42 65.43 65.24 64.72 64.31 64.83 65.81 67.00 67.63 67.31 67.93 67.47 66.75 67.79 69.97 68.70 69.02 69.00 69.22 71.53 70.50 70.39 71.04 71.47 72.07 72.01 72.63 72.88
66.16 65.87 65.34 64.89 64.35 63.56 62.75 62.33 62.66 62.59 62.11 61.24 60.02 58.90 59.67 62.07 61.98 63.89 64.62 66.95 65.59 65.42 65.69 68.58 69.43 71.23 70.95 70.14 70.74 71.81 71.22 72.18 72.72
63.79 64.32 63.91 63.46 62.81 62.14 61.28 60.07 58.49 57.10 58.50 58.60 57.04 55.08 53.48 54.50 55.35 60.48 62.90 64.36 65.14 64.66 64.20 64.94 67.95 69.00 70.59 71.25 70.33 70.43 71.13 71.04 71.77
61.45 62.04 62.24 61.83 61.15 60.15 59.00 57.45 55.78 53.87 52.27 52.37 53.41 52.21 52.65 52.77 53.04 57.99 61.45 62.67 64.14 63.86 62.76 63.19 64.17 66.68 67.84 69.39 70.74 70.26 70.02 70.37 70.08
53.92 53.10 53.16 53.76 53.93 52.03 52.55 52.27 51.67 51.49 51.47 51.29 50.98 51.37 51.48 51.54 52.08 53.77 58.65 60.15 61.80 63.31 62.59 62.09 62.59 63.19 64.77 66.03 68.43 69.48 70.42 70.34 69.62
51.37 51.49 51.81 51.97 52.08 51.71 51.98 51.47 51.59 51.29 50.92 50.79 50.44 50.45 50.53 50.63 50.93 52.06 56.94 58.81 60.27 61.03 62.82 62.39 61.62 61.53 62.30 63.79 65.73 65.99 67.70 69.23 69.74
51.43 51.14 51.54 51.60 52.01 51.93 51.68 51.51 51.14 51.02 50.92 50.78 50.18 49.68 49.65 49.91 50.42 51.40 56.56 58.82 59.83 60.08 60.63 60.73 61.08 60.57 61.49 62.21 63.05 63.62 64.65 65.50 68.34
51.53 51.37 51.28 51.38 51.83 51.30 51.18 51.01 50.82 50.25 50.69 50.19 49.94 49.42 49.70 49.48 49.68 50.28 51.92 57.38 60.00 61.03 62.83 62.32 60.68 59.89 60.68 61.53 62.05 62.16 63.06 64.12 65.87
51.59 51.16 51.12 50.84 51.10 50.67 50.81 50.64 50.80 50.61 50.25 50.02 49.82 49.13 49.15 49.58 49.20 49.54 50.44 50.80 52.61 56.54 58.44 60.95 62.36 62.72 62.27 61.53 60.89 61.05 62.03 61.88 63.09
51.53 51.61 51.50 51.26 51.35 51.46 51.15 51.05 50.63 49.97 49.92 49.93 50.15 49.14 49.32 49.00 48.84 49.07 49.57 50.44 49.49 50.74 54.90 56.24 58.06 59.64 60.35 60.76 61.64 62.21 61.61 61.55 61.37
51.78 51.82 51.61 51.68 51.45 51.46 51.45 50.59 50.61 50.16 49.98 49.68 49.91 49.52 49.26 48.44 48.03 48.49 48.89 49.50 49.44 49.41 50.49 51.70 52.69 55.30 57.44 58.69 60.01 59.95 60.52 61.40 61.71
51.75 51.60 51.26 51.23 51.07 50.58 50.66 50.30 49.88 49.73 48.75 47.97 48.53 49.31 48.61 48.73 48.65 47.79 48.40 48.60 48.87 48.92 49.45 49.40 49.01 51.60 53.84 54.98 57.35 58.00 58.83 59.47 60.38
51.62 51.50 50.99 50.95 50.91 50.78 50.29 49.88 48.96 48.94 48.11 48.39 48.65 48.81 48.19 48.03 47.66 48.38 48.99 48.19 48.70 48.16 48.46 48.29 48.24 48.35 49.75 50.72 53.44 54.85 56.30 57.61 58.86
51.00 51.34 50.64 50.32 50.18 49.45 49.00 49.07 48.66 48.51 48.02 47.26 45.66 44.55 47.11 47.74 47.34 48.24 47.39 47.01 47.90 47.63 47.32 47.37 47.42 47.87 48.21 48.55 49.95 50.76 53.29 55.42 56.69
50.79 50.82 50.65 50.16 49.79 49.36 48.48 48.05 47.90 47.46 46.83 46.05 46.91 43.30 42.24 43.01 47.12 46.49 46.74 46.68 47.05 47.06 46.90 46.69 46.82 46.98 47.44 48.02 48.17 49.03 51.28 53.14 54.93
50.04 49.87 49.49 49.29 48.90 48.24 48.10 47.51 47.60 47.05 46.20 45.83 45.47 45.76 44.75 41.09 40.42 44.92 45.36 46.32 45.06 45.95 46.02 45.97 46.19 46.55 46.88 47.32 47.97 49.09 50.11 51.25 52.89
48.73 48.79 48.42 48.08 47.98 47.82 47.32 46.70 46.27 46.73 46.51 45.55 44.89 44.08 43.59 43.01 40.42 38.63 41.57 43.53 44.62 45.15 44.90 45.27 45.56 46.04 46.55 46.86 47.34 48.55 49.71 50.95 52.21
MSLP
1018.40 1018.53 1018.55 1018.55 1018.58 1018.56 1018.50 1018.47 1018.32 1018.16 1018.04 1018.01 1017.97 1017.98 1018.08 1017.95 1017.88 1017.87 1017.75 1017.55 1017.65 1017.63 1017.66 1017.44 1017.23 1017.09 1017.04 1016.91 1016.74 1016.61 1016.55 1016.63 1016.53
1018.71 1018.83 1018.88 1018.84 1018.84 1018.75 1018.82 1018.82 1018.71 1018.60 1018.45 1018.33 1018.35 1018.39 1018.47 1018.23 1018.28 1018.26 1018.10 1018.08 1018.04 1017.88 1017.87 1017.85 1017.65 1017.42 1017.34 1017.30 1017.20 1017.03 1016.89 1016.74 1016.77
1019.07 1019.12 1019.18 1019.23 1019.29 1019.20 1019.19 1019.20 1019.14 1019.06 1018.97 1018.80 1018.82 1018.90 1018.84 1018.55 1018.57 1018.60 1018.49 1018.63 1018.40 1018.31 1018.25 1018.17 1018.03 1017.80 1017.61 1017.54 1017.46 1017.36 1017.25 1017.08 1017.05
1019.38 1019.50 1019.60 1019.68 1019.73 1019.74 1019.70 1019.65 1019.62 1019.58 1019.56 1019.53 1019.45 1019.40 1019.39 1019.06 1019.16 1018.98 1018.74 1018.90 1018.83 1018.72 1018.62 1018.47 1018.26 1018.17 1018.04 1017.90 1017.78 1017.63 1017.59 1017.54 1017.51
1019.75 1019.83 1019.97 1020.05 1020.15 1020.22 1020.29 1020.29 1020.20 1020.15 1020.18 1020.16 1020.12 1020.01 1019.93 1019.74 1019.71 1019.56 1019.50 1019.24 1018.99 1019.07 1019.01 1018.87 1018.63 1018.41 1018.33 1018.23 1018.11 1018.02 1017.97 1017.94 1017.87
1020.12 1020.28 1020.35 1020.42 1020.52 1020.61 1020.73 1020.79 1020.83 1020.82 1020.82 1020.79 1020.78 1020.60 1020.61 1020.39 1020.39 1020.15 1020.15 1019.67 1019.40 1019.26 1019.30 1019.17 1019.03 1018.84 1018.63 1018.53 1018.38 1018.27 1018.21 1018.25 1018.25
1020.58 1020.79 1020.88 1020.95 1021.04 1021.18 1021.30 1021.34 1021.22 1021.07 1021.14 1021.22 1021.25 1021.15 1021.07 1020.88 1020.85 1020.70 1020.48 1020.13 1019.81 1019.46 1019.42 1019.38 1019.30 1019.19 1019.07 1018.87 1018.68 1018.56 1018.49 1018.49 1018.46
1021.37 1021.69 1021.82 1021.79 1021.86 1021.79 1021.77 1021.73 1021.79 1021.75 1021.69 1021.62 1021.58 1021.56 1021.36 1021.24 1021.14 1021.11 1020.89 1020.59 1020.23 1019.90 1019.63 1019.48 1019.45 1019.38 1019.23 1019.17 1019.03 1018.89 1018.77 1018.68 1018.69
1021.79 1021.92 1022.15 1022.15 1022.29 1022.26 1022.28 1022.20 1022.22 1022.12 1022.14 1021.95 1021.79 1021.79 1021.70 1021.55 1021.50 1021.34 1021.08 1020.82 1020.49 1020.20 1019.91 1019.60 1019.51 1019.56 1019.42 1019.34 1019.34 1019.28 1019.12 1018.94 1018.84
1022.03 1022.22 1022.37 1022.46 1022.42 1022.31 1022.34 1022.43 1022.50 1022.44 1022.31 1022.29 1022.17 1022.09 1022.11 1021.96 1021.85 1021.83 1021.45 1021.05 1020.71 1020.40 1020.16 1019.87 1019.70 1019.65 1019.56 1019.52 1019.51 1019.42 1019.31 1019.19 1019.05
1021.98 1022.28 1022.58 1022.67 1022.72 1022.81 1022.84 1022.83 1022.91 1022.99 1022.73 1022.72 1022.58 1022.55 1022.39 1022.41 1022.35 1022.18 1022.10 1021.71 1021.19 1020.93 1020.49 1020.06 1019.81 1019.80 1019.73 1019.71 1019.65 1019.59 1019.41 1019.25 1019.12
1022.15 1022.33 1022.51 1022.80 1022.91 1023.07 1023.13 1023.20 1023.24 1023.24 1023.22 1023.00 1022.84 1022.92 1022.85 1022.68 1022.62 1022.67 1022.54 1022.34 1022.14 1021.81 1021.23 1020.77 1020.47 1020.23 1020.07 1019.92 1019.77 1019.67 1019.58 1019.38 1019.24
1022.29 1022.41 1022.76 1023.06 1023.17 1023.24 1023.26 1023.25 1023.25 1023.38 1023.33 1023.05 1022.86 1022.91 1022.90 1022.82 1022.79 1022.83 1022.87 1022.80 1022.75 1022.44 1022.11 1021.67 1021.23 1021.17 1020.84 1020.50 1020.27 1019.89 1019.65 1019.54 1019.40
1022.22 1022.54 1022.82 1023.10 1023.22 1023.26 1023.26 1023.48 1023.39 1023.29 1023.32 1023.04 1022.83 1022.81 1022.93 1022.87 1022.88 1022.79 1022.93 1023.06 1023.03 1022.84 1022.61 1022.45 1022.14 1021.70 1021.40 1020.95 1020.61 1020.33 1020.07 1019.86 1019.52
1022.30 1022.54 1022.83 1023.00 1023.08 1023.20 1023.25 1023.27 1023.55 1023.55 1023.51 1023.17 1022.93 1023.03 1023.15 1023.23 1023.15 1023.06 1023.06 1023.09 1023.05 1022.89 1022.75 1022.61 1022.39 1022.33 1021.95 1021.60 1021.21 1020.81 1020.46 1020.07 1019.77
1022.27 1022.45 1022.66 1022.83 1022.83 1022.92 1023.17 1023.43 1023.51 1023.59 1023.59 1023.27 1022.92 1022.88 1022.97 1022.88 1022.85 1022.99 1022.89 1022.84 1022.84 1022.75 1022.63 1022.58 1022.42 1022.29 1022.32 1022.07 1021.61 1021.29 1020.83 1020.35 1020.01
1022.02 1022.20 1022.45 1022.75 1022.87 1023.04 1023.23 1023.35 1023.44 1023.60 1023.72 1023.30 1023.39 1022.88 1022.67 1022.66 1022.76 1022.44 1022.56 1022.53 1022.71 1022.46 1022.47 1022.34 1022.23 1022.19 1022.08 1021.95 1021.84 1021.60 1021.09 1020.57 1020.15
1021.98 1022.11 1022.24 1022.46 1022.76 1022.86 1023.10 1023.31 1023.42 1023.32 1023.66 1023.58 1023.35 1023.11 1022.70 1022.82 1022.30 1022.21 1022.37 1022.29 1022.19 1022.03 1022.18 1022.06 1022.00 1021.91 1021.81 1021.78 1021.47 1021.32 1021.04 1020.75 1020.27
1021.85 1022.08 1022.34 1022.47 1022.67 1022.77 1022.92 1023.15 1023.22 1023.30 1023.17 1023.57 1023.53 1023.44 1023.39 1023.00 1021.93 1022.27 1022.05 1021.96 1022.03 1021.87 1021.80 1021.71 1021.59 1021.54 1021.43 1021.35 1021.29 1021.13 1020.80 1020.46 1020.17
1021.87 1021.97 1022.12 1022.27 1022.45 1022.53 1022.69 1022.88 1023.04 1023.17 1023.15 1023.27 1023.36 1023.44 1023.48 1023.44 1022.97 1021.41 1021.61 1021.96 1021.71 1021.47 1021.47 1021.36 1021.13 1021.05 1021.00 1020.78 1020.78 1020.65 1020.45 1020.10 1019.77
Wind_Speed
13 13 13 13 13 12 13 14 14 14 13 12 13 13 13 11 11 10 11 12 14 15 15 15 15 15 16 15 15 14 10 9 10
13 12 12 14 14 15 15 16 16 16 15 13 13 14 13 10 10 10 11 12 15 16 14 14 14 14 14 14 14 14 14 11 8
13 13 14 15 15 15 16 16 17 18 18 17 15 14 12 10 10 10 9 13 15 15 15 13 12 12 13 13 13 13 12 12 12
12 14 14 15 16 16 16 17 18 19 19 18 17 16 15 10 8 10 8 12 15 15 15 14 13 10 11 12 12 11 10 9 10
13 13 14 15 15 16 17 17 17 18 19 19 18 16 14 10 9 8 9 14 13 14 14 14 14 11 10 10 10 11 8 8 8
11 13 14 15 16 17 17 18 18 16 18 18 17 14 7 8 7 6 15 14 12 13 13 12 12 12 12 12 8 9 7 6 5
10 12 14 15 17 18 18 17 16 13 8 7 11 6 8 7 6 6 14 14 13 11 10 11 11 10 10 11 10 7 7 6 3
5 5 5 6 10 7 9 9 8 11 7 7 7 7 7 5 5 8 14 13 13 12 9 8 9 10 10 10 9 10 8 6 4
5 5 6 6 5 8 7 6 8 9 9 9 9 9 6 5 4 7 13 11 11 10 10 9 7 8 9 9 10 10 9 9 8
6 5 5 5 5 5 6 6 7 8 9 8 9 9 8 7 5 4 15 14 11 9 9 8 7 7 8 8 9 9 9 8 8
6 6 5 5 4 4 5 5 6 6 6 8 9 9 7 7 8 6 7 16 18 17 15 11 7 6 8 8 8 9 9 8 7
7 5 5 4 4 5 4 5 5 5 5 7 7 6 6 5 7 6 6 7 15 17 16 16 15 12 10 9 8 8 8 8 7
6 5 4 4 3 3 3 3 4 4 5 5 6 5 4 5 6 5 6 6 7 9 16 16 16 15 13 11 11 11 9 7 8
6 5 4 4 3 2 2 3 2 2 3 4 5 4 3 4 4 7 5 6 7 6 11 14 16 15 14 12 12 12 12 11 9
6 4 5 4 3 3 3 2 2 2 3 4 5 2 3 1 2 5 2 4 5 7 7 7 8 14 14 13 13 12 12 12 11
6 4 5 5 4 4 2 2 1 1 3 3 4 2 3 1 5 2 1 2 1 5 4 4 5 6 12 12 13 13 13 11 11
7 6 5 5 3 4 4 3 2 1 0 1 0 3 2 2 4 6 4 4 3 5 4 6 7 6 6 7 13 14 14 12 12
7 6 5 5 4 4 4 4 5 3 2 2 0 2 3 4 4 3 5 6 4 8 5 9 7 8 7 9 9 10 13 15 14
5 5 5 4 4 5 4 4 4 4 4 2 3 4 4 5 7 3 5 7 9 8 8 8 9 9 7 10 13 15 15 15 15
4 5 5 5 4 4 5 5 5 4 3 3 3 5 4 6 7 11 7 7 9 9 8 8 8 10 9 8 10 15 16 16 15
Wind_Direction
97 89 86 81 75 77 74 66 60 57 55 64 80 83 69 62 56 50 48 47 47 51 46 46 46 45 48 49 59 61 76 95 99
92 86 88 82 73 73 73 70 64 59 56 60 67 70 64 62 58 51 44 43 36 39 48 45 42 44 46 46 50 54 62 77 94
98 91 87 80 76 77 74 70 65 60 57 61 63 66 55 65 61 55 50 40 42 37 31 36 43 43 43 43 42 47 54 65 80
99 89 85 83 81 77 72 69 66 62 59 59 59 58 53 59 51 45 40 37 38 36 33 29 31 45 41 43 41 45 49 67 76
90 91 88 85 81 78 74 67 64 62 59 56 53 52 48 47 41 35 25 19 33 30 29 29 27 33 36 35 36 36 62 46 79
99 90 91 88 84 79 74 69 65 62 56 52 47 45 39 39 34 28 16 17 14 22 25 28 28 27 31 29 30 36 53 52 62
96 93 91 87 85 78 74 70 63 59 54 46 40 39 33 34 28 24 17 16 10 14 25 24 25 25 26 30 34 36 36 34 20
91 96 89 87 80 74 71 63 56 60 53 50 49 39 37 27 21 15 8 6 5 3 4 15 29 22 26 25 27 30 32 24 11
107 100 96 86 76 80 68 67 67 64 57 52 48 33 25 18 14 11 6 5 5 2 0 5 27 18 20 22 23 17 15 15 15
119 110 102 100 102 92 86 73 63 54 49 45 38 31 30 32 37 28 25 25 17 10 2 358 359 8 25 21 14 10 4 360 4
129 123 110 99 88 81 74 67 61 55 44 43 34 27 39 49 41 38 36 40 37 32 22 21 3 1 15 15 13 4 4 1 356
137 130 124 115 98 93 91 76 59 50 38 36 31 31 40 50 42 34 34 30 36 32 33 28 27 24 16 14 12 9 360 5 1
141 137 134 130 115 103 77 57 60 42 26 21 23 37 59 41 38 41 35 33 21 24 28 33 31 21 14 11 5 356 4 353 1
151 153 147 148 129 105 102 81 56 40 18 4 14 26 37 36 82 58 52 44 33 21 24 20 18 14 11 7 7 4 358 348 342
168 162 158 164 161 163 166 155 95 41 5 344 354 0 7 349 147 30 41 45 36 24 18 7 3 3 3 0 358 357 350 342 339
182 178 182 188 200 195 178 132 147 108 10 322 338 313 329 267 180 3 178 356 12 5 4 4 354 344 342 342 338 336 334 335 332
196 197 198 200 200 195 193 191 171 162 319 50 304 343 299 110 221 304 271 300 284 316 322 336 331 326 314 317 324 321 314 313 313
213 209 211 209 214 216 206 206 209 218 163 191 318 285 288 323 289 275 285 291 279 311 296 313 305 309 302 303 302 297 302 303 296
229 236 229 225 212 216 211 202 210 203 210 196 226 248 274 286 297 245 283 274 293 286 295 297 297 295 292 289 286 289 288 289 285
224 221 214 216 213 222 213 194 205 212 231 226 201 225 234 250 262 292 284 267 278 289 286 284 285 290 285 277 279 281 282 280 279